Location: Hertford
(51.7958°N, 0.0812°W)
Time: 23:01:29
(UTC+00:00)

ISS - Visible Passes

Search period start: 11 December 2017 00:00
Search period end: 21 December 2017 00:00
Orbit: 403 x 407 km, 51.6° (Epoch: 12 December)

Date Brightness Start Highest point End Pass type
(mag) Time Alt. Az. Time Alt. Az. Time Alt. Az.
11 Dec -3.7 17:09:49 10° W 17:13:07 74° SSW 17:15:47 15° ESE visible
11 Dec -1.4 18:46:31 10° W 18:48:28 23° WSW 18:48:28 23° WSW visible
12 Dec -2.5 17:54:10 10° W 17:57:14 37° SSW 17:58:42 23° SSE visible
13 Dec -3.0 17:01:54 10° W 17:05:07 52° SSW 17:08:20 10° ESE visible
13 Dec -1.1 18:39:08 10° WSW 18:41:04 15° SW 18:41:49 14° SSW visible
14 Dec -1.4 17:46:26 10° W 17:49:03 22° SW 17:51:42 10° SSE visible
15 Dec -2.0 16:53:59 10° W 16:56:59 32° SSW 16:59:58 10° SE visible
16 Dec -0.6 17:39:13 10° WSW 17:40:44 13° SW 17:42:13 10° SSW visible
17 Dec -0.8 16:46:15 10° W 16:48:42 19° SW 16:51:08 10° SSE visible
19 Dec 0.0 16:39:29 10° WSW 16:40:15 11° SW 16:41:01 10° SSW visible
